Location: Laura�t
(43.9341°N, 0.2497°E)
Time: 14:05:18
(UTC+00:00)

Cosmos 1602 - Pass Details

Date: 03 March 2021
Orbit: 512 x 534 km, 82.5° (Epoch: 13 April)

Event Time Altitude Azimuth Distance (km) Brightness Sun altitude
Rises 18:38:05 0° 188° (S) 2,646 7.4 -9.4°
Reaches altitude 10° 18:40:12 10° 189° (S) 1,766 6.5 -9.8°
Maximum altitude 18:44:06 84° 279° (W) 539 3.8 -10.5°
Drops below altitude 10° 18:48:02 10° 7° (N) 1,792 6.4 -11.2°
Sets 18:50:12 0° 8° (N) 2,690 7.3 -11.6°
